| time (UTC) | temp F | wind direction | speed MPH | gust MPH | rain 1hr in | rain 24hr in | rain mn in | humidity % | barometer mb |
| 20260502204516 | 61 | 322 | 6.0 | 16.0 | 0.00 | 0.00 | 0.00 | 37 | 1019.6 |
| 20260502204009 | 61 | 315 | 7.0 | 17.0 | 0.00 | 0.00 | 0.00 | 36 | 1019.7 |
| 20260502203507 | 62 | 330 | 10.0 | 15.0 | 0.00 | 0.00 | 0.00 | 37 | 1019.8 |
| 20260502203020 | 61 | 328 | 7.0 | 15.0 | 0.00 | 0.00 | 0.00 | 39 | 1019.8 |
| 20260502202511 | 61 | 286 | 8.0 | 16.0 | 0.00 | 0.00 | 0.00 | 40 | 1019.9 |
| 20260502202006 | 61 | 325 | 10.0 | 15.0 | 0.00 | 0.00 | 0.00 | 39 | 1020.0 |
| 20260502201535 | 61 | 257 | 6.0 | 15.0 | 0.00 | 0.00 | 0.00 | 39 | 1019.8 |
| 20260502201010 | 62 | 360 | 6.0 | 15.0 | 0.00 | 0.00 | 0.00 | 38 | 1020.0 |
| 20260502200507 | 62 | 259 | 4.0 | 13.0 | 0.00 | 0.00 | 0.00 | 35 | 1019.8 |
| 20260502200023 | 61 | 317 | 6.0 | 16.0 | 0.00 | 0.00 | 0.00 | 36 | 1020.0 |
| 20260502195507 | 61 | 331 | 7.0 | 18.0 | 0.00 | 0.00 | 0.00 | 36 | 1020.1 |
| 20260502195002 | 61 | 308 | 9.0 | 18.0 | 0.00 | 0.00 | 0.00 | 36 | 1020.1 |
| 20260502194513 | 61 | 268 | 8.0 | 15.0 | 0.00 | 0.00 | 0.00 | 38 | 1020.0 |
| 20260502194004 | 61 | 334 | 7.0 | 15.0 | 0.00 | 0.00 | 0.00 | 42 | 1020.0 |
| 20260502193507 | 61 | 331 | 10.0 | 15.0 | 0.00 | 0.00 | 0.00 | 35 | 1020.1 |
| 20260502193016 | 61 | 298 | 5.0 | 15.0 | 0.00 | 0.00 | 0.00 | 38 | 1019.8 |
| 20260502192508 | 61 | 276 | 9.0 | 19.0 | 0.00 | 0.00 | 0.00 | 39 | 1020.0 |
| 20260502192008 | 60 | 292 | 8.0 | 19.0 | 0.00 | 0.00 | 0.00 | 38 | 1019.8 |
| 20260502191528 | 61 | 298 | 8.0 | 18.0 | 0.00 | 0.00 | 0.00 | 38 | 1020.0 |
| 20260502191007 | 61 | 329 | 9.0 | 18.0 | 0.00 | 0.00 | 0.00 | 39 | 1020.1 |
| 20260502190510 | 61 | 360 | 12.0 | 16.0 | 0.00 | 0.00 | 0.00 | 38 | 1019.9 |
| 20260502190028 | 61 | 327 | 9.0 | 14.0 | 0.00 | 0.00 | 0.00 | 37 | 1020.1 |
| 20260502185509 | 61 | 289 | 5.0 | 18.0 | 0.00 | 0.00 | 0.00 | 41 | 1020.2 |
| 20260502185011 | 61 | 21 | 10.0 | 15.0 | 0.00 | 0.00 | 0.00 | 40 | 1020.1 |
| 20260502184533 | 61 | 344 | 8.0 | 16.0 | 0.00 | 0.00 | 0.00 | 42 | 1020.1 |
| 20260502184007 | 61 | 255 | 8.0 | 16.0 | 0.00 | 0.00 | 0.00 | 40 | 1020.1 |
| 20260502183507 | 61 | 344 | 7.0 | 15.0 | 0.00 | 0.00 | 0.00 | 39 | 1020.1 |
| 20260502183014 | 60 | 295 | 7.0 | 16.0 | 0.00 | 0.00 | 0.00 | 44 | 1020.3 |
| 20260502182506 | 60 | 304 | 9.0 | 16.0 | 0.00 | 0.00 | 0.00 | 39 | 1020.3 |
| 20260502182006 | 60 | 321 | 9.0 | 16.0 | 0.00 | 0.00 | 0.00 | 40 | 1020.4 |
| 20260502181524 | 60 | 270 | 9.0 | 15.0 | 0.00 | 0.00 | 0.00 | 41 | 1020.3 |
| 20260502181007 | 59 | 333 | 7.0 | 17.0 | 0.00 | 0.00 | 0.00 | 42 | 1020.4 |
| 20260502180507 | 60 | 307 | 8.0 | 17.0 | 0.00 | 0.00 | 0.00 | 42 | 1020.6 |
| 20260502170507 | 59 | 294 | 9.0 | 16.0 | 0.00 | 0.00 | 0.00 | 43 | 1021.0 |
| 20260502164002 | 58 | 263 | 7.0 | 16.0 | 0.00 | 0.00 | 0.00 | 48 | 1021.0 |
| 20260502163509 | 58 | 265 | 8.0 | 16.0 | 0.00 | 0.00 | 0.00 | 46 | 1021.1 |
| 20260502163009 | 58 | 253 | 7.0 | 14.0 | 0.00 | 0.00 | 0.00 | 47 | 1021.1 |
| 20260502162504 | 58 | 281 | 10.0 | 14.0 | 0.00 | 0.00 | 0.00 | 45 | 1020.9 |
| 20260502162010 | 58 | 256 | 5.0 | 14.0 | 0.00 | 0.00 | 0.00 | 46 | 1020.8 |
| 20260502161514 | 58 | 261 | 6.0 | 14.0 | 0.00 | 0.00 | 0.00 | 50 | 1020.8 |
| 20260502161006 | 58 | 263 | 3.0 | 11.0 | 0.00 | 0.00 | 0.00 | 51 | 1020.9 |
| 20260502160510 | 57 | 319 | 4.0 | 11.0 | 0.00 | 0.00 | 0.00 | 46 | 1020.9 |
| 20260502152009 | 55 | 352 | 7.0 | 13.0 | 0.00 | 0.00 | 0.00 | 51 | 1020.9 |
| 20260502151528 | 55 | 309 | 4.0 | 12.0 | 0.00 | 0.00 | 0.00 | 50 | 1020.9 |
| 20260502151005 | 55 | 300 | 4.0 | 13.0 | 0.00 | 0.00 | 0.00 | 50 | 1021.0 |
| 20260502150505 | 55 | 312 | 6.0 | 13.0 | 0.00 | 0.00 | 0.00 | 48 | 1021.1 |
| 20260502130510 | 50 | 266 | 4.0 | 10.0 | 0.00 | 0.00 | 0.00 | 62 | 1020.1 |
| 20260502123508 | 48 | 275 | 3.0 | 7.0 | 0.00 | 0.00 | 0.00 | 66 | 1019.8 |
| 20260502123025 | 47 | 254 | 2.0 | 6.0 | 0.00 | 0.00 | 0.00 | 66 | 1019.8 |
| 20260502122511 | 47 | 240 | 3.0 | 5.0 | 0.00 | 0.00 | 0.00 | 66 | 1019.7 |
| 20260502122014 | 47 | 222 | 2.0 | 4.0 | 0.00 | 0.00 | 0.00 | 66 | 1019.7 |
| 20260502121531 | 46 | 265 | 2.0 | 6.0 | 0.00 | 0.00 | 0.00 | 66 | 1019.6 |
| 20260502121011 | 46 | 286 | 2.0 | 6.0 | 0.00 | 0.00 | 0.00 | 66 | 1019.6 |
| 20260502120503 | 46 | 262 | 3.0 | 6.0 | 0.00 | 0.00 | 0.00 | 1019.5 | |
| 20260502115505 | 46 | 261 | 3.0 | 7.0 | 0.00 | 0.00 | 0.00 | 64 | 1019.3 |
| 20260502115004 | 46 | 249 | 3.0 | 9.0 | 0.00 | 0.00 | 0.00 | 64 | 1019.2 |
| 20260502114518 | 46 | 280 | 3.0 | 9.0 | 0.00 | 0.00 | 0.00 | 63 | 1019.2 |
| 20260502114008 | 46 | 279 | 4.0 | 7.0 | 0.00 | 0.00 | 0.00 | 62 | 1019.2 |
| 20260502113507 | 46 | 254 | 3.0 | 7.0 | 0.00 | 0.00 | 0.00 | 62 | 1019.2 |
| 20260502113027 | 46 | 237 | 3.0 | 4.0 | 0.00 | 0.00 | 0.00 | 61 | 1019.1 |
| 20260502112507 | 46 | 271 | 2.0 | 7.0 | 0.00 | 0.00 | 0.00 | 60 | 1019.1 |
| 20260502112007 | 46 | 267 | 3.0 | 7.0 | 0.00 | 0.00 | 0.00 | 60 | 1019.2 |
| 20260502111526 | 47 | 269 | 3.0 | 7.0 | 0.00 | 0.00 | 0.00 | 59 | 1019.1 |
| 20260502111011 | 47 | 279 | 2.0 | 7.0 | 0.00 | 0.00 | 0.00 | 58 | 1019.1 |
| 20260502110510 | 47 | 267 | 3.0 | 7.0 | 0.00 | 0.00 | 0.00 | 57 | 1019.0 |
| 20260502110028 | 47 | 259 | 3.0 | 7.0 | 0.00 | 0.00 | 0.00 | 56 | 1018.9 |
| 20260502105507 | 47 | 259 | 3.0 | 6.0 | 0.00 | 0.00 | 0.00 | 56 | 1018.9 |
| 20260502105005 | 47 | 269 | 2.0 | 3.0 | 0.00 | 0.00 | 0.00 | 57 | 1018.6 |
| 20260502104524 | 47 | 267 | 2.0 | 3.0 | 0.00 | 0.00 | 0.00 | 56 | 1018.6 |
| 20260502104006 | 47 | 251 | 2.0 | 3.0 | 0.00 | 0.00 | 0.00 | 56 | 1018.6 |
| 20260502103506 | 47 | 254 | 2.0 | 4.0 | 0.00 | 0.00 | 0.00 | 56 | 1018.6 |
| 20260502103022 | 47 | 258 | 2.0 | 4.0 | 0.00 | 0.00 | 0.00 | 56 | 1018.7 |
| 20260502102511 | 47 | 267 | 2.0 | 3.0 | 0.00 | 0.00 | 0.00 | 56 | 1018.6 |
| 20260502102007 | 47 | 263 | 2.0 | 3.0 | 0.00 | 0.00 | 0.00 | 57 | 1018.6 |
| 20260502101524 | 47 | 261 | 2.0 | 3.0 | 0.00 | 0.00 | 0.00 | 56 | 1018.6 |
| 20260502101011 | 47 | 263 | 2.0 | 3.0 | 0.00 | 0.00 | 0.00 | 57 | 1018.7 |
| 20260502100507 | 47 | 243 | 2.0 | 3.0 | 0.00 | 0.00 | 0.00 | 57 | 1018.6 |
| 20260502091525 | 43 | 254 | 2.0 | 3.0 | 0.00 | 0.00 | 0.00 | 68 | 1018.5 |
| 20260502091012 | 42 | 255 | 2.0 | 3.0 | 0.00 | 0.00 | 0.00 | 72 | 1018.5 |
| 20260502090507 | 41 | 245 | 2.0 | 3.0 | 0.00 | 0.00 | 0.00 | 75 | 1018.4 |
| 20260502071502 | 38 | 227 | 3.0 | 4.0 | 0.00 | 0.00 | 0.00 | 86 | 1018.4 |
| 20260502071006 | 38 | 227 | 3.0 | 4.0 | 0.00 | 0.00 | 0.00 | 86 | 1018.5 |
| 20260502070503 | 38 | 230 | 3.0 | 4.0 | 0.00 | 0.00 | 0.00 | 86 | 1018.5 |
| 20260502070037 | 38 | 229 | 3.0 | 4.0 | 0.00 | 0.00 | 0.00 | 85 | 1018.5 |
| 20260502065503 | 38 | 228 | 3.0 | 4.0 | 0.00 | 0.00 | 0.00 | 85 | 1018.6 |
| 20260502065007 | 38 | 227 | 3.0 | 4.0 | 0.00 | 0.00 | 0.00 | 84 | 1018.5 |
| 20260502064509 | 38 | 232 | 3.0 | 3.0 | 0.00 | 0.00 | 0.00 | 84 | 1018.5 |
| 20260502064004 | 38 | 232 | 3.0 | 4.0 | 0.00 | 0.00 | 0.00 | 84 | 1018.6 |
| 20260502063506 | 39 | 225 | 2.0 | 4.0 | 0.00 | 0.00 | 0.00 | 84 | 1018.6 |
| 20260502063018 | 39 | 234 | 3.0 | 4.0 | 0.00 | 0.00 | 0.00 | 84 | 1018.7 |
| 20260502062503 | 39 | 232 | 3.0 | 3.0 | 0.00 | 0.00 | 0.00 | 83 | 1018.7 |
| 20260502062006 | 39 | 227 | 3.0 | 3.0 | 0.00 | 0.00 | 0.00 | 82 | 1018.7 |
| 20260502061519 | 39 | 227 | 2.0 | 3.0 | 0.00 | 0.00 | 0.00 | 83 | 1018.8 |
| 20260502061008 | 39 | 236 | 2.0 | 3.0 | 0.00 | 0.00 | 0.00 | 83 | 1018.9 |
| 20260502060506 | 39 | 230 | 2.0 | 4.0 | 0.00 | 0.00 | 0.00 | 82 | 1019.0 |
| 20260502060018 | 39 | 229 | 3.0 | 4.0 | 0.00 | 0.00 | 0.00 | 82 | 1019.0 |
| 20260502055503 | 39 | 228 | 3.0 | 4.0 | 0.00 | 0.00 | 0.00 | 82 | 1019.1 |
| 20260502055003 | 40 | 228 | 3.0 | 4.0 | 0.00 | 0.00 | 0.00 | 82 | 1019.2 |
| 20260502054506 | 40 | 229 | 4.0 | 4.0 | 0.00 | 0.00 | 0.00 | 81 | 1019.1 |
| 20260502054003 | 40 | 227 | 3.0 | 3.0 | 0.00 | 0.00 | 0.00 | 80 | 1019.1 |
| 20260502053502 | 40 | 233 | 2.0 | 3.0 | 0.00 | 0.00 | 0.00 | 81 | 1019.1 |
| 20260502053010 | 40 | 233 | 2.0 | 4.0 | 0.00 | 0.00 | 0.00 | 80 | 1019.1 |
| 20260502052505 | 40 | 230 | 3.0 | 4.0 | 0.00 | 0.00 | 0.00 | 80 | 1019.1 |
| 20260502052003 | 41 | 237 | 3.0 | 4.0 | 0.00 | 0.00 | 0.00 | 80 | 1019.1 |
| 20260502051514 | 41 | 229 | 3.0 | 4.0 | 0.00 | 0.00 | 0.00 | 79 | 1018.9 |
| 20260502051006 | 41 | 229 | 3.0 | 4.0 | 0.00 | 0.00 | 0.00 | 79 | 1018.9 |
| 20260502050507 | 41 | 232 | 3.0 | 4.0 | 0.00 | 0.00 | 0.00 | 78 | 1018.9 |
| 20260502050021 | 41 | 230 | 3.0 | 4.0 | 0.00 | 0.00 | 0.00 | 79 | 1018.9 |
| 20260502045506 | 42 | 227 | 3.0 | 4.0 | 0.00 | 0.00 | 0.00 | 78 | 1019.0 |
| 20260502045010 | 42 | 234 | 3.0 | 3.0 | 0.00 | 0.00 | 0.00 | 77 | 1019.0 |
| 20260502044503 | 42 | 234 | 2.0 | 3.0 | 0.00 | 0.00 | 0.00 | 77 | 1019.0 |
| 20260502044002 | 42 | 238 | 2.0 | 3.0 | 0.00 | 0.00 | 0.00 | 77 | 1019.0 |
| 20260502043504 | 42 | 232 | 3.0 | 3.0 | 0.00 | 0.00 | 0.00 | 77 | 1018.9 |
| 20260502043008 | 42 | 234 | 3.0 | 3.0 | 0.00 | 0.00 | 0.00 | 77 | 1019.0 |
| 20260502042504 | 43 | 236 | 2.0 | 3.0 | 0.00 | 0.00 | 0.00 | 76 | 1019.0 |
| 20260502042004 | 43 | 232 | 3.0 | 3.0 | 0.00 | 0.00 | 0.00 | 76 | 1018.9 |
| 20260502041524 | 43 | 232 | 3.0 | 3.0 | 0.00 | 0.00 | 0.00 | 76 | 1019.0 |
| 20260502041004 | 43 | 230 | 3.0 | 3.0 | 0.00 | 0.00 | 0.00 | 75 | 1018.9 |
| 20260502040503 | 43 | 231 | 3.0 | 3.0 | 0.00 | 0.00 | 0.00 | 73 | 1018.9 |
| 20260502040032 | 44 | 232 | 3.0 | 3.0 | 0.00 | 0.00 | 0.00 | 73 | 1018.9 |
| 20260502035506 | 44 | 232 | 2.0 | 3.0 | 0.00 | 0.00 | 0.00 | 73 | 1018.9 |
| 20260502035006 | 44 | 232 | 2.0 | 3.0 | 0.00 | 0.00 | 0.00 | 74 | 1018.9 |
| 20260502034522 | 44 | 232 | 3.0 | 3.0 | 0.00 | 0.00 | 0.00 | 75 | 1019.1 |
| 20260502034009 | 44 | 228 | 2.0 | 3.0 | 0.00 | 0.00 | 0.00 | 74 | 1019.1 |
| 20260502033505 | 44 | 232 | 2.0 | 3.0 | 0.00 | 0.00 | 0.00 | 74 | 1019.2 |
| 20260502033030 | 45 | 232 | 2.0 | 3.0 | 0.00 | 0.00 | 0.00 | 73 | 1019.1 |
| 20260502032503 | 45 | 232 | 2.0 | 3.0 | 0.00 | 0.00 | 0.00 | 72 | 1019.2 |
| 20260502032003 | 45 | 236 | 2.0 | 2.0 | 0.00 | 0.00 | 0.00 | 70 | 1019.2 |
| 20260502031510 | 45 | 236 | 2.0 | 2.0 | 0.00 | 0.00 | 0.00 | 72 | 1019.2 |
| 20260502031003 | 46 | 236 | 2.0 | 2.0 | 0.00 | 0.00 | 0.00 | 70 | 1019.2 |
| 20260502030502 | 46 | 236 | 2.0 | 3.0 | 0.00 | 0.00 | 0.00 | 70 | 1019.2 |
| 20260502030015 | 46 | 235 | 2.0 | 3.0 | 0.00 | 0.00 | 0.00 | 69 | 1019.1 |
| 20260502025503 | 47 | 235 | 2.0 | 2.0 | 0.00 | 0.00 | 0.00 | 68 | 1019.1 |
| 20260502025012 | 47 | 235 | 2.0 | 2.0 | 0.00 | 0.00 | 0.00 | 68 | 1019.2 |
| 20260502024519 | 47 | 235 | 2.0 | 2.0 | 0.00 | 0.00 | 0.00 | 66 | 1019.1 |
| 20260502024006 | 48 | 257 | 1.0 | 1.0 | 0.00 | 0.00 | 0.00 | 64 | 1019.1 |
| 20260502023507 | 48 | 300 | 1.0 | 1.0 | 0.00 | 0.00 | 0.00 | 65 | 1019.0 |
| 20260502023029 | 48 | 300 | 0.0 | 2.0 | 0.00 | 0.00 | 0.00 | 62 | 1018.9 |
| 20260502022509 | 49 | 300 | 0.0 | 2.0 | 0.00 | 0.00 | 0.00 | 63 | 1018.9 |
| 20260502022008 | 49 | 300 | 0.0 | 2.0 | 0.00 | 0.00 | 0.00 | 61 | 1018.8 |
| 20260502021505 | 49 | 300 | 0.0 | 2.0 | 0.00 | 0.00 | 0.00 | 57 | 1018.8 |
| 20260502021008 | 49 | 300 | 0.0 | 2.0 | 0.00 | 0.00 | 0.00 | 57 | 1018.7 |
| 20260502020503 | 49 | 300 | 0.0 | 1.0 | 0.00 | 0.00 | 0.00 | 57 | 1018.7 |
| 20260502020009 | 50 | 300 | 0.0 | 2.0 | 0.00 | 0.00 | 0.00 | 56 | 1018.7 |
| 20260502015504 | 50 | 300 | 0.0 | 2.0 | 0.00 | 0.00 | 0.00 | 56 | 1018.7 |
| 20260502015004 | 50 | 300 | 0.0 | 1.0 | 0.00 | 0.00 | 0.00 | 55 | 1018.6 |
| 20260502014513 | 51 | 300 | 0.0 | 1.0 | 0.00 | 0.00 | 0.00 | 55 | 1018.7 |
| 20260502014006 | 51 | 300 | 0.0 | 1.0 | 0.00 | 0.00 | 0.00 | 57 | 1018.7 |
| 20260502013506 | 51 | 300 | 1.0 | 1.0 | 0.00 | 0.00 | 0.00 | 55 | 1018.6 |
| 20260502013021 | 52 | 326 | 0.0 | 2.0 | 0.00 | 0.00 | 0.00 | 55 | 1018.5 |
| 20260502012507 | 53 | 326 | 0.0 | 2.0 | 0.00 | 0.00 | 0.00 | 51 | 1018.4 |
| 20260502012007 | 53 | 326 | 0.0 | 2.0 | 0.00 | 0.00 | 0.00 | 50 | 1018.4 |
| 20260502011523 | 53 | 326 | 0.0 | 1.0 | 0.00 | 0.00 | 0.00 | 47 | 1018.3 |
| 20260502011010 | 54 | 326 | 1.0 | 1.0 | 0.00 | 0.00 | 0.00 | 47 | 1018.3 |
| 20260502010506 | 54 | 326 | 0.0 | 2.0 | 0.00 | 0.00 | 0.00 | 47 | 1018.3 |
| 20260502010008 | 54 | 315 | 1.0 | 3.0 | 0.00 | 0.00 | 0.00 | 44 | 1018.1 |
| 20260502005503 | 54 | 323 | 0.0 | 4.0 | 0.00 | 0.00 | 0.00 | 44 | 1018.1 |
| 20260502005003 | 55 | 321 | 1.0 | 4.0 | 0.00 | 0.00 | 0.00 | 43 | 1018.0 |
| 20260502004510 | 55 | 333 | 2.0 | 8.0 | 0.00 | 0.00 | 0.00 | 42 | 1017.9 |
| 20260502004007 | 55 | 320 | 2.0 | 9.0 | 0.00 | 0.00 | 0.00 | 42 | 1017.9 |
| 20260502003507 | 55 | 331 | 2.0 | 9.0 | 0.00 | 0.00 | 0.00 | 42 | 1017.8 |
| 20260502003015 | 55 | 350 | 4.0 | 11.0 | 0.00 | 0.00 | 0.00 | 41 | 1017.6 |
| 20260502002509 | 56 | 318 | 3.0 | 11.0 | 0.00 | 0.00 | 0.00 | 40 | 1017.5 |
| 20260502002011 | 56 | 342 | 5.0 | 10.0 | 0.00 | 0.00 | 0.00 | 41 | 1017.4 |
| 20260502001520 | 56 | 311 | 4.0 | 10.0 | 0.00 | 0.00 | 0.00 | 40 | 1017.3 |
| 20260502001009 | 56 | 340 | 5.0 | 9.0 | 0.00 | 0.00 | 0.00 | 39 | 1017.2 |
| 20260502000511 | 56 | 38 | 3.0 | 8.0 | 0.00 | 0.00 | 0.00 | 40 | 1017.1 |
| 20260502000040 | 56 | 305 | 5.0 | 8.0 | 0.00 | 0.00 | 0.00 | 40 | 1017.0 |
| 20260501235512 | 57 | 5 | 3.0 | 9.0 | 0.00 | 0.00 | 0.00 | 40 | 1016.9 |
| 20260501235008 | 57 | 342 | 3.0 | 11.0 | 0.00 | 0.00 | 0.00 | 40 | 1016.9 |
| 20260501234514 | 57 | 297 | 5.0 | 11.0 | 0.00 | 0.00 | 0.00 | 39 | 1016.8 |
| 20260501234003 | 57 | 315 | 3.0 | 10.0 | 0.00 | 0.00 | 0.00 | 40 | 1016.8 |
| 20260501233503 | 57 | 5 | 4.0 | 10.0 | 0.00 | 0.00 | 0.00 | 39 | 1016.7 |
| 20260501233003 | 57 | 329 | 5.0 | 10.0 | 0.00 | 0.00 | 0.00 | 39 | 1016.7 |
| 20260501232501 | 57 | 342 | 6.0 | 10.0 | 0.00 | 0.00 | 0.00 | 38 | 1016.7 |
| 20260501232002 | 57 | 348 | 4.0 | 12.0 | 0.00 | 0.00 | 0.00 | 39 | 1016.7 |
| 20260501231504 | 58 | 349 | 6.0 | 12.0 | 0.00 | 0.00 | 0.00 | 37 | 1016.7 |
| 20260501231003 | 58 | 312 | 6.0 | 12.0 | 0.00 | 0.00 | 0.00 | 37 | 1016.6 |
| 20260501230502 | 58 | 329 | 5.0 | 12.0 | 0.00 | 0.00 | 0.00 | 37 | 1016.6 |
| 20260501230007 | 58 | 348 | 8.0 | 11.0 | 0.00 | 0.00 | 0.00 | 37 | 1016.6 |
| 20260501225503 | 59 | 286 | 3.0 | 12.0 | 0.00 | 0.00 | 0.00 | 36 | 1016.7 |
| 20260501225005 | 59 | 360 | 6.0 | 12.0 | 0.00 | 0.00 | 0.00 | 35 | 1016.7 |
| 20260501224508 | 59 | 302 | 7.0 | 11.0 | 0.00 | 0.00 | 0.00 | 35 | 1016.6 |
| 20260501224004 | 59 | 313 | 5.0 | 13.0 | 0.00 | 0.00 | 0.00 | 36 | 1016.6 |
| 20260501223503 | 59 | 9 | 6.0 | 13.0 | 0.00 | 0.00 | 0.00 | 33 | 1016.5 |
| 20260501223017 | 59 | 335 | 7.0 | 13.0 | 0.00 | 0.00 | 0.00 | 31 | 1016.7 |
| 20260501222506 | 59 | 295 | 6.0 | 11.0 | 0.00 | 0.00 | 0.00 | 34 | 1016.7 |
| 20260501222007 | 59 | 49 | 5.0 | 11.0 | 0.00 | 0.00 | 0.00 | 32 | 1016.6 |
| 20260501221503 | 60 | 5 | 5.0 | 13.0 | 0.00 | 0.00 | 0.00 | 32 | 1016.5 |
| 20260501221004 | 60 | 5 | 6.0 | 13.0 | 0.00 | 0.00 | 0.00 | 32 | 1016.4 |
| 20260501220503 | 60 | 13 | 6.0 | 12.0 | 0.00 | 0.00 | 0.00 | 32 | 1016.4 |
| 20260501220005 | 60 | 350 | 7.0 | 12.0 | 0.00 | 0.00 | 0.00 | 35 | 1016.4 |
| 20260501215504 | 60 | 352 | 4.0 | 10.0 | 0.00 | 0.00 | 0.00 | 32 | 1016.3 |
| 20260501215003 | 60 | 298 | 4.0 | 14.0 | 0.00 | 0.00 | 0.00 | 35 | 1016.2 |
| 20260501214506 | 60 | 320 | 6.0 | 14.0 | 0.00 | 0.00 | 0.00 | 34 | 1016.2 |
| 20260501214003 | 60 | 340 | 5.0 | 14.0 | 0.00 | 0.00 | 0.00 | 37 | 1016.1 |
| 20260501213503 | 60 | 317 | 7.0 | 14.0 | 0.00 | 0.00 | 0.00 | 35 | 1016.1 |
| 20260501213011 | 60 | 352 | 5.0 | 16.0 | 0.00 | 0.00 | 0.00 | 37 | 1015.9 |
| 20260501212502 | 60 | 345 | 7.0 | 15.0 | 0.00 | 0.00 | 0.00 | 36 | 1016.0 |
| 20260501212003 | 60 | 328 | 7.0 | 15.0 | 0.00 | 0.00 | 0.00 | 36 | 1015.8 |
| 20260501211516 | 60 | 58 | 2.0 | 15.0 | 0.00 | 0.00 | 0.00 | 42 | 1015.7 |
| 20260501211009 | 60 | 15 | 10.0 | 15.0 | 0.00 | 0.00 | 0.00 | 38 | 1015.9 |
| 20260501210506 | 59 | 5 | 6.0 | 15.0 | 0.00 | 0.00 | 0.00 | 44 | 1015.9 |
| 20260501210004 | 59 | 5 | 4.0 | 15.0 | 0.00 | 0.00 | 0.00 | 42 | 1016.0 |
| 20260501205503 | 58 | 23 | 8.0 | 14.0 | 0.00 | 0.00 | 0.00 | 40 | 1016.2 |
| 20260501205003 | 59 | 333 | 7.0 | 14.0 | 0.00 | 0.00 | 0.00 | 39 | 1016.4 |